Location: Lake Lucerne
(45.5315°N, 88.8489°W)
Time: 12:10:53
(UTC-06:00)

Tiangong 2 - Visible Passes

Search period start: 17 January 2019 00:00
Search period end: 27 January 2019 00:00
Orbit: 380 x 392 km, 42.8° (Epoch: 17 January)

Date Brightness Start Highest point End Pass type
(mag) Time Alt. Az. Time Alt. Az. Time Alt. Az.
17 Jan 4.4 04:45:34 10° SE 04:45:34 10° SE 04:45:46 10° SE visible
17 Jan 2.5 06:17:58 10° SW 06:20:55 34° SSE 06:23:53 10° E visible
18 Jan 2.9 05:21:55 25° SSE 05:22:04 25° SSE 05:24:47 10° E visible
18 Jan 1.9 06:55:25 10° WSW 06:58:32 50° S 07:01:40 10° E visible
19 Jan 2.0 05:58:07 24° SW 05:59:36 44° S 06:02:41 10° E visible
20 Jan 3.4 05:01:57 24° ESE 05:01:57 24° ESE 05:03:39 10° E visible
20 Jan 1.7 06:34:13 11° WSW 06:37:14 51° S 06:40:22 10° ESE visible
21 Jan 1.5 05:37:59 48° SSW 05:38:17 50° S 05:41:25 10° E visible
22 Jan 4.3 04:41:44 15° E 04:41:44 15° E 04:42:24 10° E visible
22 Jan 1.8 06:13:59 20° WSW 06:15:55 46° S 06:19:00 10° ESE visible
23 Jan 2.3 05:17:41 40° SE 05:17:41 40° SE 05:20:04 10° ESE visible
23 Jan 2.6 06:50:38 10° W 06:53:26 28° SSW 06:56:14 10° SE visible
24 Jan 2.0 05:53:39 30° SW 05:54:31 37° SSW 05:57:31 10° SE visible
25 Jan 3.5 04:57:22 21° SE 04:57:22 21° SE 04:58:39 10° ESE visible
25 Jan 3.1 06:29:37 10° WSW 06:31:58 19° SSW 06:34:21 10° SSE visible
26 Jan 2.5 05:33:21 27° S 05:33:21 27° S 05:35:52 10° SE visible
